Total_Precipitation_Accumulation
0.20 0.44 0.80 0.86 1.17 1.52 1.15 0.87 0.72 0.65 0.96 0.86 0.68 0.58 0.52 0.70 0.83 0.71 0.77 0.73 0.75 0.96 1.04 1.35 1.67 1.69 1.31 0.71 0.45 0.32 0.25 0.23 0.24 0.26 0.25 0.31 0.41 0.45 0.43 0.36 0.40 0.43 0.68
0.24 0.39 0.67 0.79 1.07 1.33 1.38 1.13 0.77 0.56 0.70 0.80 0.94 0.79 0.60 0.81 0.72 0.64 0.63 0.70 0.86 0.94 0.93 1.11 1.52 1.49 1.64 1.16 0.54 0.46 0.33 0.29 0.16 0.09 0.05 0.06 0.33 0.28 0.20 0.29 0.55 0.47 0.50
0.14 0.34 0.41 0.74 0.87 1.08 1.11 1.03 0.72 0.64 0.63 0.74 0.98 1.07 0.71 0.79 0.57 0.52 0.63 0.56 0.90 1.02 1.10 1.02 1.00 0.86 0.98 0.76 0.47 0.43 0.36 0.32 0.20 0.17 0.09 0.10 0.23 0.63 0.67 0.62 0.79 0.43 0.26
0.13 0.30 0.37 0.62 0.83 0.87 0.96 0.82 0.79 0.72 0.69 0.79 0.92 0.99 0.91 0.81 0.54 0.47 0.49 0.49 0.75 0.96 0.93 0.83 0.75 0.78 0.78 0.66 0.46 0.34 0.30 0.24 0.15 0.13 0.10 0.06 0.16 0.89 0.76 0.69 0.44 0.29 0.27
0.20 0.44 0.49 0.70 0.85 0.86 0.81 0.83 0.79 0.80 0.95 0.93 0.88 1.08 1.17 1.05 0.93 0.93 0.64 0.42 0.40 0.36 0.40 0.51 0.37 0.37 0.51 0.47 0.31 0.29 0.17 0.16 0.07 0.06 0.04 0.08 0.23 0.96 0.99 0.44 0.21 0.27 0.36
0.28 0.57 0.72 0.93 0.97 0.89 0.80 0.79 0.59 0.53 0.64 0.81 0.91 1.09 1.03 0.94 1.32 1.31 0.78 0.45 0.30 0.28 0.34 0.34 0.22 0.17 0.21 0.27 0.24 0.21 0.24 0.17 0.04 0.04 0.05 0.17 0.32 1.04 1.27 0.58 0.33 0.37 0.38
0.27 0.42 0.67 1.14 1.23 1.04 0.87 0.82 0.63 0.63 0.59 0.55 0.66 0.68 0.70 0.84 1.48 1.32 0.81 0.44 0.28 0.33 0.45 0.30 0.21 0.23 0.37 0.25 0.22 0.25 0.21 0.07 0.05 0.02 0.03 0.11 0.47 1.07 1.02 0.91 0.44 0.29 0.38
0.52 0.61 0.62 0.88 0.93 1.12 1.21 1.19 0.86 0.77 0.71 0.63 0.63 0.73 0.90 0.86 1.06 1.02 0.73 0.52 0.29 0.32 0.46 0.30 0.22 0.24 0.37 0.34 0.26 0.29 0.14 0.03 0.02 0.04 0.04 0.20 0.54 0.89 0.77 0.93 0.48 0.36 0.37
1.21 1.39 1.24 0.84 0.80 0.71 0.94 1.13 1.27 0.98 0.78 0.66 0.64 0.73 0.71 0.57 0.58 0.75 0.55 0.42 0.31 0.29 0.40 0.30 0.19 0.28 0.38 0.37 0.29 0.18 0.08 0.04 0.02 0.09 0.09 0.18 0.38 0.95 0.57 0.88 0.61 0.57 0.55
1.62 1.68 1.54 1.15 0.84 0.59 0.48 0.70 0.91 0.98 0.93 0.88 0.66 0.56 0.42 0.30 0.29 0.51 0.28 0.19 0.32 0.32 0.35 0.39 0.29 0.29 0.39 0.38 0.21 0.13 0.08 0.06 0.04 0.05 0.09 0.18 0.44 0.98 0.62 0.76 0.78 0.71 0.78
2.02 1.97 1.77 1.57 1.11 0.81 0.64 0.70 1.03 1.05 0.93 0.84 0.59 0.52 0.61 0.32 0.22 0.33 0.19 0.09 0.16 0.24 0.24 0.33 0.36 0.36 0.30 0.15 0.10 0.07 0.08 0.07 0.06 0.04 0.04 0.13 0.52 1.21 0.87 0.73 0.89 0.73 0.51
2.07 1.94 1.75 1.63 1.38 1.01 0.93 0.99 0.91 1.03 1.02 0.66 0.43 0.37 0.35 0.40 0.37 0.35 0.22 0.18 0.24 0.28 0.21 0.29 0.30 0.30 0.14 0.06 0.07 0.09 0.06 0.07 0.06 0.03 0.03 0.11 0.42 1.38 1.07 0.73 0.69 0.48 0.36
2.41 1.69 1.49 1.53 1.66 1.20 0.89 0.83 0.94 1.41 1.26 0.93 0.60 0.61 0.66 0.68 0.71 0.74 0.49 0.35 0.24 0.20 0.15 0.20 0.16 0.16 0.11 0.12 0.12 0.09 0.05 0.05 0.05 0.04 0.04 0.11 0.32 1.03 1.49 0.83 0.51 0.39 0.35
3.76 2.06 1.57 1.49 1.35 1.17 0.79 0.54 0.64 1.02 1.36 1.22 0.99 0.91 0.93 0.98 0.84 0.80 0.65 0.39 0.26 0.19 0.17 0.19 0.15 0.13 0.09 0.10 0.13 0.08 0.10 0.11 0.05 0.04 0.03 0.09 0.31 0.62 1.77 1.04 0.65 0.51 0.46
4.81 4.05 2.32 1.93 2.00 1.12 0.87 0.45 0.31 0.36 0.75 0.91 1.37 1.47 1.43 1.13 0.98 0.98 0.99 1.02 0.64 0.46 0.32 0.22 0.16 0.12 0.09 0.09 0.16 0.15 0.09 0.10 0.08 0.07 0.03 0.05 0.27 0.42 1.08 1.26 0.73 0.54 0.53
3.19 3.94 4.22 2.66 1.93 1.78 1.31 0.68 0.35 0.33 0.47 0.85 0.91 1.12 1.42 1.63 1.61 1.50 1.18 1.11 1.46 1.60 1.23 0.88 0.53 0.28 0.16 0.12 0.09 0.10 0.12 0.12 0.12 0.10 0.09 0.10 0.20 0.31 0.57 1.15 0.78 0.67 0.67
2.33 3.31 3.67 3.30 2.40 1.73 1.68 1.23 0.58 0.44 0.37 0.60 0.72 0.84 1.08 1.19 1.28 1.69 1.77 1.34 1.21 1.75 2.16 2.05 1.60 1.19 0.73 0.45 0.24 0.11 0.10 0.12 0.12 0.12 0.12 0.14 0.22 0.29 0.41 0.92 1.05 0.73 0.70
2.33 2.38 2.91 2.64 2.73 2.66 2.26 2.45 1.92 1.08 0.55 0.48 0.77 0.86 0.86 0.99 1.16 1.56 1.56 1.67 1.91 1.81 2.29 2.14 1.49 1.25 1.04 0.96 0.82 0.64 0.45 0.31 0.19 0.16 0.17 0.18 0.22 0.23 0.29 0.59 0.75 1.09 0.94
3.11 2.53 2.93 3.30 2.77 3.11 3.10 3.09 3.16 2.22 1.35 0.78 0.74 0.82 1.07 0.94 1.02 1.13 1.60 2.46 2.72 2.48 1.85 1.86 2.23 1.93 1.23 0.72 0.66 0.74 0.76 0.65 0.44 0.31 0.20 0.22 0.29 0.36 0.42 0.63 0.68 0.71 1.07
3.53 3.18 3.07 3.07 3.70 3.51 3.77 3.28 3.31 2.78 2.23 1.36 0.91 0.76 0.98 1.47 1.33 1.43 1.18 1.43 2.42 2.91 2.91 2.51 1.85 1.96 1.96 1.80 1.36 0.83 0.61 0.49 0.46 0.50 0.41 0.33 0.32 0.41 0.46 0.72 0.72 0.84 1.02
2.88 3.28 2.97 3.11 3.42 3.31 3.50 3.02 2.55 2.16 2.26 2.16 1.58 1.40 1.04 1.15 1.64 1.70 1.68 1.62 1.89 1.85 1.85 2.28 3.00 2.74 2.18 2.08 2.48 1.78 1.19 0.79 0.44 0.32 0.45 0.53 0.44 0.46 0.66 0.94 1.11 0.98 0.98
2.70 2.78 3.01 3.06 3.52 3.38 2.72 2.73 2.44 2.05 1.79 2.17 2.31 1.76 1.80 1.66 1.65 1.89 1.68 1.58 1.68 1.86 1.69 1.38 1.49 2.13 2.41 2.76 2.50 2.13 1.63 1.18 0.97 0.50 0.24 0.23 0.32 0.46 0.46 0.52 0.64 0.81 0.89
2.53 2.55 2.76 2.74 2.72 2.25 2.22 2.02 2.02 2.20 2.19 1.73 1.43 1.47 1.28 1.55 1.77 1.85 2.03 2.05 2.01 1.90 1.87 1.72 1.54 1.70 1.63 1.94 2.49 2.72 2.03 1.26 0.73 0.68 0.64 0.42 0.28 0.32 0.39 0.60 0.72 0.74 0.65
2.83 2.23 2.66 3.04 2.59 2.22 2.06 2.03 1.61 1.51 1.66 1.62 1.80 1.60 1.80 1.72 1.63 1.89 2.00 2.10 2.27 2.40 2.01 1.97 2.04 2.24 2.21 1.58 1.51 1.66 2.00 1.65 1.10 0.62 0.46 0.63 0.67 0.67 0.67 0.74 0.80 0.69 0.63
4.16 2.88 2.18 2.61 2.93 2.67 2.25 2.26 2.09 2.14 1.72 1.65 1.96 2.07 1.95 2.08 2.22 2.32 2.39 2.50 2.36 2.41 2.66 2.36 2.18 2.18 2.74 2.62 2.19 1.66 1.47 1.63 1.72 1.61 0.92 0.68 0.84 0.94 1.09 0.98 0.70 0.56 0.79
3.46 4.51 3.64 2.73 2.41 2.31 2.10 2.19 2.10 1.64 1.49 1.31 1.41 1.73 1.69 1.75 1.95 2.29 2.45 2.37 2.37 2.06 1.93 2.05 2.08 1.90 1.77 2.03 2.26 2.35 2.02 1.65 1.48 1.85 1.68 1.04 0.87 0.77 0.74 0.98 1.45 1.37 1.36